When you browse on this site, cookies collect data to enhance your experience and personalize the content and advertising you see.
Visit our Privacy Policy to learn more. By continuing to use the site, you agree to this use of cookies and data.
  • In Lithuania
  • List of Countries
  • For 7 days
  • Water Temperature
  • Satellite Maps
  • Weather Map
  • Weather Widgets
  • user-avatar
    Login

    Hourly Weather Nkongsamba

    Today, 19 January, Saturday

    Time Temperature Precipitation Wind Pressure Humidity
    00:00 +20°C° 0 mm 0 mps 686 mmHg 77%
    01:00 +22°C° 0 mm 1 mps 686 mmHg 78%
    02:00 +22°C° 0 mm 1 mps 686 mmHg 78%
    03:00 +21°C° 0 mm 1 mps 686 mmHg 78%
    04:00 +21°C° 0 mm 1 mps 686 mmHg 77%
    05:00 +21°C° 0 mm 1 mps 686 mmHg 77%
    06:00 +21°C° 0 mm 1 mps 686 mmHg 76%
    07:00 +18°C° 0 mm 0 mps 686 mmHg 75%
    08:00 +24°C° 0 mm 1 mps 687 mmHg 63%
    09:00 +27°C° 0 mm 1 mps 688 mmHg 51%
    10:00 +30°C° 0 mm 1 mps 689 mmHg 39%
    11:00 +32°C° 0 mm 1 mps 689 mmHg 35%
    12:00 +33°C° 0 mm 1 mps 688 mmHg 31%
    13:00 +36°C° 0 mm 2 mps 688 mmHg 26%
    14:00 +35°C° 0 mm 2 mps 687 mmHg 27%
    15:00 +35°C° 0 mm 2 mps 687 mmHg 27%
    16:00 +35°C° 0 mm 2 mps 686 mmHg 27%
    17:00 +32°C° 0 mm 2 mps 686 mmHg 36%
    18:00 +29°C° 0 mm 2 mps 686 mmHg 44%
    19:00 +27°C° 0 mm 2 mps 685 mmHg 52%
    20:00 +26°C° 0 mm 1 mps 686 mmHg 61%
    21:00 +24°C° 0 mm 1 mps 687 mmHg 69%
    22:00 +21°C° 0 mm 0 mps 687 mmHg 78%
    23:00 +21°C° 0 mm 0 mps 687 mmHg 79%

    Tomorrow, 20 January, Sunday

    Time Temperature Precipitation Wind Pressure Humidity
    00:00 +20°C° 0 mm 0 mps 687 mmHg 81%
    01:00 +20°C° 0 mm 0 mps 687 mmHg 83%
    02:00 +20°C° 0 mm 0 mps 687 mmHg 83%
    03:00 +19°C° 0 mm 0 mps 686 mmHg 84%
    04:00 +19°C° 0 mm 0 mps 686 mmHg 84%
    05:00 +21°C° 0 mm 1 mps 686 mmHg 84%
    06:00 +21°C° 0 mm 1 mps 686 mmHg 84%
    07:00 +21°C° 0 mm 1 mps 687 mmHg 84%
    08:00 +22°C° 0 mm 0 mps 688 mmHg 70%
    09:00 +26°C° 0 mm 0 mps 689 mmHg 56%
    10:00 +29°C° 0 mm 0 mps 690 mmHg 42%
    11:00 +33°C° 0 mm 1 mps 689 mmHg 38%
    12:00 +34°C° 0 mm 1 mps 689 mmHg 33%
    13:00 +36°C° 0 mm 2 mps 688 mmHg 29%
    14:00 +35°C° 0 mm 2 mps 687 mmHg 32%
    15:00 +34°C° 0 mm 2 mps 686 mmHg 35%
    16:00 +32°C° 0 mm 2 mps 686 mmHg 38%
    17:00 +30°C° 0 mm 1 mps 686 mmHg 43%
    18:00 +28°C° 0 mm 1 mps 686 mmHg 48%
    19:00 +27°C° 0 mm 1 mps 686 mmHg 53%
    20:00 +24°C° 0 mm 0 mps 686 mmHg 59%
    21:00 +22°C° 0 mm 0 mps 686 mmHg 66%
    22:00 +21°C° 0 mm 0 mps 687 mmHg 72%
    23:00 +21°C° 0 mm 0 mps 687 mmHg 75%

    Day after tomorrow, 21 January, Monday

    Time Temperature Precipitation Wind Pressure Humidity
    00:00 +20°C° 0 mm 0 mps 686 mmHg 77%
    01:00 +20°C° 0 mm 0 mps 686 mmHg 79%
    02:00 +20°C° 0 mm 0 mps 686 mmHg 79%
    03:00 +19°C° 0 mm 0 mps 685 mmHg 79%
    04:00 +19°C° 0 mm 0 mps 685 mmHg 79%
    05:00 +19°C° 0 mm 0 mps 685 mmHg 79%
    06:00 +21°C° 0 mm 1 mps 686 mmHg 78%
    07:00 +21°C° 0 mm 1 mps 686 mmHg 77%
    08:00 +24°C° 0 mm 1 mps 687 mmHg 65%
    09:00 +28°C° 0 mm 1 mps 688 mmHg 53%
    10:00 +31°C° 0 mm 1 mps 689 mmHg 41%
    11:00 +33°C° 0 mm 1 mps 689 mmHg 38%
    12:00 +34°C° 0 mm 1 mps 688 mmHg 34%
    13:00 +36°C° 0 mm 2 mps 688 mmHg 30%
    14:00 +36°C° 0 mm 2 mps 687 mmHg 31%
    15:00 +35°C° 0 mm 2 mps 686 mmHg 32%
    16:00 +35°C° 0 mm 3 mps 685 mmHg 33%
    17:00 +32°C° 0 mm 2 mps 685 mmHg 40%
    18:00 +30°C° 0 mm 2 mps 685 mmHg 47%
    19:00 +28°C° 0 mm 2 mps 685 mmHg 54%
    20:00 +26°C° 0.1 mm 1 mps 686 mmHg 62%
    21:00 +25°C° 0.1 mm 1 mps 686 mmHg 70%
    22:00 +22°C° 0.1 mm 0 mps 687 mmHg 78%
    23:00 +21°C° 0 mm 0 mps 686 mmHg 80%

    22 January, Tuesday

    Time Temperature Precipitation Wind Pressure Humidity
    00:00 +21°C° 0 mm 0 mps 686 mmHg 82%
    01:00 +20°C° 0 mm 0 mps 686 mmHg 84%
    02:00 +20°C° 0 mm 0 mps 685 mmHg 85%
    03:00 +20°C° 0 mm 0 mps 685 mmHg 85%
    04:00 +20°C° 0 mm 0 mps 685 mmHg 86%
    05:00 +20°C° 0 mm 0 mps 685 mmHg 86%
    06:00 +19°C° 0 mm 0 mps 685 mmHg 87%
    07:00 +19°C° 0 mm 0 mps 686 mmHg 88%
    08:00 +22°C° 0 mm 0 mps 687 mmHg 76%
    09:00 +27°C° 0 mm 1 mps 688 mmHg 64%
    10:00 +30°C° 0 mm 1 mps 689 mmHg 52%
    11:00 +32°C° 0 mm 1 mps 688 mmHg 47%
    12:00 +34°C° 0 mm 2 mps 688 mmHg 41%
    13:00 +35°C° 0 mm 2 mps 687 mmHg 35%
    14:00 +34°C° 0.1 mm 2 mps 686 mmHg 39%
    15:00 +32°C° 0.1 mm 2 mps 685 mmHg 43%
    16:00 +31°C° 0.1 mm 2 mps 684 mmHg 46%
    17:00 +29°C° 0.4 mm 2 mps 685 mmHg 54%
    18:00 +27°C° 0.4 mm 1 mps 685 mmHg 62%
    19:00 +26°C° 0.4 mm 1 mps 685 mmHg 70%
    20:00 +25°C° 0.3 mm 1 mps 685 mmHg 75%
    21:00 +22°C° 0.3 mm 0 mps 686 mmHg 81%
    22:00 +21°C° 0.3 mm 0 mps 686 mmHg 87%
    23:00 +20°C° 0.1 mm 0 mps 686 mmHg 88%

    23 January, Wednesday

    Time Temperature Precipitation Wind Pressure Humidity
    00:00 +20°C° 0.1 mm 0 mps 686 mmHg 89%
    01:00 +22°C° 0.1 mm 1 mps 685 mmHg 91%
    02:00 +22°C° 0 mm 1 mps 685 mmHg 90%
    03:00 +21°C° 0 mm 1 mps 685 mmHg 90%
    04:00 +21°C° 0 mm 1 mps 684 mmHg 90%
    05:00 +19°C° 0 mm 0 mps 685 mmHg 89%
    06:00 +19°C° 0 mm 0 mps 685 mmHg 89%
    07:00 +19°C° 0 mm 0 mps 686 mmHg 89%
    08:00 +22°C° 0 mm 0 mps 686 mmHg 77%
    09:00 +27°C° 0 mm 1 mps 687 mmHg 66%
    10:00 +29°C° 0 mm 1 mps 688 mmHg 54%
    11:00 +31°C° 0 mm 1 mps 688 mmHg 48%
    12:00 +34°C° 0 mm 2 mps 687 mmHg 42%
    13:00 +35°C° 0 mm 2 mps 687 mmHg 36%
    14:00 +34°C° 0.1 mm 2 mps 686 mmHg 40%
    15:00 +32°C° 0.1 mm 2 mps 685 mmHg 44%
    16:00 +30°C° 0.1 mm 2 mps 684 mmHg 48%
    17:00 +28°C° 0.8 mm 2 mps 685 mmHg 58%
    18:00 +26°C° 0.8 mm 1 mps 685 mmHg 68%
    19:00 +24°C° 0.8 mm 1 mps 685 mmHg 78%
    20:00 +24°C° 0.2 mm 1 mps 685 mmHg 83%
    21:00 +21°C° 0.2 mm 0 mps 686 mmHg 88%
    22:00 +20°C° 0.2 mm 0 mps 686 mmHg 93%
    23:00 +20°C° 0.4 mm 0 mps 686 mmHg 93%

    24 January, Thursday

    Time Temperature Precipitation Wind Pressure Humidity
    00:00 +20°C° 0.4 mm 0 mps 685 mmHg 94%
    01:00 +20°C° 0.4 mm 0 mps 685 mmHg 94%
    02:00 +19°C° 0.1 mm 0 mps 685 mmHg 93%
    03:00 +19°C° 0.1 mm 0 mps 684 mmHg 93%
    04:00 +19°C° 0.1 mm 0 mps 684 mmHg 92%
    05:00 +19°C° 0 mm 0 mps 684 mmHg 91%
    06:00 +19°C° 0 mm 0 mps 684 mmHg 90%
    07:00 +19°C° 0 mm 0 mps 685 mmHg 89%
    08:00 +24°C° 0 mm 1 mps 685 mmHg 78%
    09:00 +27°C° 0 mm 1 mps 686 mmHg 66%
    10:00 +29°C° 0 mm 1 mps 687 mmHg 55%
    11:00 +30°C° 0.2 mm 1 mps 686 mmHg 51%
    12:00 +32°C° 0.2 mm 2 mps 686 mmHg 47%
    13:00 +34°C° 0.2 mm 2 mps 686 mmHg 43%
    14:00 +32°C° 0.4 mm 2 mps 685 mmHg 43%
    15:00 +32°C° 0.4 mm 1 mps 684 mmHg 44%
    16:00 +32°C° 0.4 mm 1 mps 684 mmHg 45%
    17:00 +29°C° 1.3 mm 1 mps 684 mmHg 55%
    18:00 +27°C° 1.3 mm 1 mps 684 mmHg 65%
    19:00 +25°C° 1.3 mm 1 mps 684 mmHg 75%
    20:00 +24°C° 1.3 mm 1 mps 684 mmHg 81%
    21:00 +21°C° 1.3 mm 0 mps 685 mmHg 86%
    22:00 +21°C° 1.3 mm 0 mps 685 mmHg 91%
    23:00 +20°C° 0.6 mm 0 mps 685 mmHg 91%
    Show more